Naples, Italy

11:09 PM CET on December 06, 2016 (GMT +0100)
Capodichino Mil

Weather History for LIRN - February, 2014

Change the Weather History Date:

Tuesday, February 4, 2014

  Actual Average Record
Temperature  
Mean Temperature 54 °F -  
Max Temperature 59 °F 54 °F 86 °F (1999)
Min Temperature 48 °F 39 °F 33 °F (1999)
Degree Days  
Heating Degree Days 11    
Growing Degree Days 4 (Base 50)    
Moisture  
Dew Point 48 °F    
Average Humidity 85    
Maximum Humidity 100    
Minimum Humidity 64    
Precipitation  
Precipitation 0.08 in - - ()
Sea Level Pressure  
Sea Level Pressure 30.01 in    
Wind  
Wind Speed 3 mph ()    
Max Wind Speed 10 mph    
Max Gust Speed -    
Visibility 6.0 miles    
Events Rain    
Averages and records for this station are not official NWS values.
T = Trace of Precipitation, MM = Missing Value Source: Averaged Metar Reports

Daily Weather History Graph

Daily Weather History Graph

Search for Another Location

Airport or City:

Trip Planner

Search our weather history database for the weather conditions in past years. The results will help you decide how hot, cold, wet, or windy it might be!

Date:

Astronomy

Feb. 04, 2014 Rise Set
Actual Time 7:10 AM CET 5:23 PM CET
Civil Twilight 6:41 AM CET 5:52 PM CET
Nautical Twilight 6:08 AM CET 6:25 PM CET
Astronomical Twilight 5:36 AM CET 6:57 PM CET
Moon 9:35 AM CET (2/4) 11:02 PM CET (2/4)
Length of Visible Light 11h 10m
Length of Day
10h 13m
Waxing Crescent, 26% of the Moon is Illuminated
Feb 4
Waxing Crescent
Feb 6
First Quarter
Feb 15
Full
Feb 22
Last Quarter
Mar 1
New

Hourly Weather History & Observations

Time (CET) Temp. Dew Point Humidity Pressure Visibility Wind Dir Wind Speed Gust Speed Precip Events Conditions
12:20 AM 51.8 °F 48.2 °F 88% 29.95 in 5.0 mi SSE 4.6 mph - N/A   Mostly Cloudy
12:50 AM 51.8 °F 48.2 °F 88% 29.95 in 6.2 mi SSE 4.6 mph - N/A   Mostly Cloudy
1:00 AM 51 °F 47 °F 82% 29.95 in 6 mi South 3.5 mph - - Rain Light Drizzle
1:20 AM 51.8 °F 46.4 °F 82% 29.95 in 6.2 mi South 3.5 mph - N/A   Mostly Cloudy
1:50 AM 51.8 °F 46.4 °F 82% 29.95 in 6.2 mi SSE 3.5 mph - N/A   Mostly Cloudy
2:20 AM 51.8 °F 46.4 °F 82% 29.95 in 6.2 mi SSE 3.5 mph - N/A   Mostly Cloudy
3:20 AM 51.8 °F 46.4 °F 82% 29.95 in 6.2 mi Variable 2.3 mph - N/A   Mostly Cloudy
3:50 AM 51.8 °F 46.4 °F 82% 29.95 in 6.2 mi Variable 2.3 mph - N/A   Mostly Cloudy
4:00 AM 50 °F 47 °F 84% 29.97 in 6 mi East 2.3 mph - - Rain Light Drizzle
4:20 AM 50.0 °F 46.4 °F 87% 29.95 in 6.2 mi Variable 2.3 mph - N/A   Mostly Cloudy
4:50 AM 50.0 °F 46.4 °F 87% 29.98 in 6.2 mi ENE 3.5 mph - N/A   Mostly Cloudy
5:20 AM 50.0 °F 46.4 °F 87% 29.98 in 6.2 mi Variable 2.3 mph - N/A   Mostly Cloudy
5:50 AM 50.0 °F 46.4 °F 87% 29.98 in - North - - N/A   Dust Whirls
6:20 AM 50.0 °F 46.4 °F 87% 29.98 in 6.2 mi East 3.5 mph - N/A   Mostly Cloudy
6:50 AM 50.0 °F 46.4 °F 87% 29.98 in 6.2 mi Variable 2.3 mph - N/A   Mostly Cloudy
7:00 AM 50 °F 47 °F 84% 30.00 in 12 mi East 2.3 mph - -   Mostly Cloudy
7:20 AM 50.0 °F 46.4 °F 87% 29.98 in 6.2 mi Calm Calm - N/A   Mostly Cloudy
7:50 AM 50.0 °F 46.4 °F 87% 30.01 in 6.2 mi Variable 1.2 mph - N/A   Mostly Cloudy
8:20 AM 51.8 °F 46.4 °F 82% 30.01 in 6.2 mi Calm Calm - N/A   Mostly Cloudy
8:50 AM 53.6 °F 46.4 °F 77% 30.01 in 6.2 mi Variable 2.3 mph - N/A   Mostly Cloudy
9:20 AM 55.4 °F 46.4 °F 72% 30.01 in 6.2 mi Variable 2.3 mph - N/A   Mostly Cloudy
9:50 AM 55.4 °F 46.4 °F 72% 30.01 in 6.2 mi Variable 1.2 mph - N/A   Scattered Clouds
10:20 AM 55.4 °F 46.4 °F 72% 30.01 in 6.2 mi South 4.6 mph - N/A   Scattered Clouds
10:50 AM 55.4 °F 46.4 °F 72% 30.04 in 6.2 mi South 6.9 mph - N/A   Partly Cloudy
11:20 AM 57.2 °F 46.4 °F 67% 30.04 in 6.2 mi SSW 6.9 mph - N/A   Scattered Clouds
11:50 AM 55.4 °F 46.4 °F 72% 30.04 in 6.2 mi South 6.9 mph - N/A   Scattered Clouds
12:20 PM 55.4 °F 46.4 °F 72% 30.01 in 6.2 mi South 9.2 mph - N/A   Mostly Cloudy
12:50 PM 59.0 °F 48.2 °F 67% 30.01 in 6.2 mi Variable 8.1 mph - N/A   Mostly Cloudy
1:00 PM 57 °F 48 °F 64% 30.03 in 12 mi South 9.2 mph - -   Mostly Cloudy
1:20 PM 57.2 °F 48.2 °F 72% 30.01 in 6.2 mi South 9.2 mph - N/A   Mostly Cloudy
1:50 PM 55.4 °F 48.2 °F 77% 30.01 in 6.2 mi South 10.4 mph - N/A   Mostly Cloudy
2:20 PM 53.6 °F 50.0 °F 88% 30.01 in 6.2 mi SSW 9.2 mph - N/A Rain Light Rain
2:50 PM 53.6 °F 50.0 °F 88% 30.01 in 3.1 mi South 6.9 mph - N/A Rain Light Rain
3:20 PM 51.8 °F 50.0 °F 94% 30.01 in 2.5 mi South 3.5 mph - N/A Rain Light Rain
3:50 PM 53.6 °F 50.0 °F 88% 30.04 in 2.5 mi WSW 3.5 mph - N/A Rain Light Rain
4:00 PM 53 °F 51 °F 90% 30.04 in 2 mi SW 2.3 mph - -   Mist
4:20 PM 51.8 °F 50.0 °F 94% 30.04 in 3.7 mi SSE 3.5 mph - N/A   Mostly Cloudy
4:50 PM 53.6 °F 50.0 °F 88% 30.04 in 5.0 mi SE 3.5 mph - N/A   Mostly Cloudy
5:20 PM 51.8 °F 50.0 °F 94% 30.04 in 5.0 mi Variable 2.3 mph - N/A   Mostly Cloudy
5:50 PM 53.6 °F 50.0 °F 88% 30.04 in 5.0 mi East 3.5 mph - N/A   Mostly Cloudy
6:20 PM 51.8 °F 50.0 °F 94% 30.04 in 6.2 mi ENE 3.5 mph - N/A   Mostly Cloudy
6:50 PM 51.8 °F 50.0 °F 94% 30.04 in 6.2 mi ENE 2.3 mph - N/A   Scattered Clouds
7:20 PM 51.8 °F 50.0 °F 94% 30.04 in 6.2 mi ENE 3.5 mph - N/A   Scattered Clouds
7:50 PM 51.8 °F 50.0 °F 94% 30.04 in 6.2 mi ENE 3.5 mph - N/A   Scattered Clouds
8:20 PM 51.8 °F 50.0 °F 94% 30.04 in 6.2 mi Variable 2.3 mph - N/A   Scattered Clouds
8:50 PM 51.8 °F 50.0 °F 94% 30.04 in 6.2 mi Variable 2.3 mph - N/A   Scattered Clouds
9:20 PM 51.8 °F 50.0 °F 94% 30.04 in 6.2 mi Variable 2.3 mph - N/A Rain Light Rain
9:50 PM 51.8 °F 50.0 °F 94% 30.04 in 6.2 mi SW 3.5 mph - N/A   Scattered Clouds
10:00 PM 51 °F 49 °F 91% 30.06 in 9 mi SSW 3.5 mph - -   Partly Cloudy
10:20 PM 51.8 °F 48.2 °F 88% 30.04 in 6.2 mi South 2.3 mph - N/A   Mostly Cloudy
10:50 PM 51.8 °F 50.0 °F 94% 30.04 in 6.2 mi Variable 1.2 mph - N/A   Mostly Cloudy
11:20 PM 50.0 °F 48.2 °F 94% 30.04 in 6.2 mi Calm Calm - N/A   Scattered Clouds
11:50 PM 48.2 °F 48.2 °F 100% 30.04 in - North - - N/A   Unknown